Year,Month,Day,Hour,Minute,Value (Times are PST for windspeed in km/hr)
2006,06,15,00,00,1.20
2006,06,15,00,01,1.70
2006,06,15,00,02,5.60
2006,06,15,00,03,1.70
2006,06,15,00,04,0.80
2006,06,15,00,05,1.90
2006,06,15,00,06,3.50
2006,06,15,00,07,2.30
2006,06,15,00,08,0.90
2006,06,15,00,09,0.80
2006,06,15,00,10,3.10
2006,06,15,00,11,3.60
2006,06,15,00,12,3.30
2006,06,15,00,13,2.10
2006,06,15,00,14,1.80
2006,06,15,00,15,3.40
2006,06,15,00,16,3.50
2006,06,15,00,17,2.40
2006,06,15,00,18,1.90
2006,06,15,00,19,1.50
2006,06,15,00,20,0.00
2006,06,15,00,21,0.30
2006,06,15,00,22,1.70
2006,06,15,00,23,3.30
2006,06,15,00,24,2.60
2006,06,15,00,25,0.40
2006,06,15,00,26,3.60
2006,06,15,00,27,4.60
2006,06,15,00,28,2.10
2006,06,15,00,29,1.40
2006,06,15,00,30,1.50
2006,06,15,00,31,0.50
2006,06,15,00,32,0.00
2006,06,15,00,33,0.00
2006,06,15,00,34,1.00
2006,06,15,00,35,0.90
2006,06,15,00,36,0.10
2006,06,15,00,37,0.70
2006,06,15,00,38,0.30
2006,06,15,00,39,0.00
2006,06,15,00,40,0.00
2006,06,15,00,41,0.10
2006,06,15,00,42,0.00
2006,06,15,00,43,0.00
2006,06,15,00,44,0.90
2006,06,15,00,45,0.30
2006,06,15,00,46,0.00
2006,06,15,00,47,0.20
2006,06,15,00,48,1.40
2006,06,15,00,49,3.50
2006,06,15,00,50,3.20
2006,06,15,00,51,2.80
2006,06,15,00,52,0.80
2006,06,15,00,53,0.30
2006,06,15,00,54,0.00
2006,06,15,00,55,0.00
2006,06,15,00,56,0.00
2006,06,15,00,57,0.20
2006,06,15,00,58,1.60
2006,06,15,00,59,1.50
2006,06,15,01,00,1.40
2006,06,15,01,01,3.10
2006,06,15,01,02,2.20
2006,06,15,01,03,0.60
2006,06,15,01,04,1.30
2006,06,15,01,05,1.70
2006,06,15,01,06,2.90
2006,06,15,01,07,3.50
2006,06,15,01,08,2.30
2006,06,15,01,09,1.20
2006,06,15,01,10,0.60
2006,06,15,01,11,1.60
2006,06,15,01,12,1.10
2006,06,15,01,13,1.50
2006,06,15,01,14,2.50
2006,06,15,01,15,0.50
2006,06,15,01,16,0.00
2006,06,15,01,17,1.80
2006,06,15,01,18,0.80
2006,06,15,01,19,0.20
2006,06,15,01,20,1.60
2006,06,15,01,21,1.00
2006,06,15,01,22,0.20
2006,06,15,01,23,0.00
2006,06,15,01,24,0.00
2006,06,15,01,25,0.00
2006,06,15,01,26,0.00
2006,06,15,01,27,0.00
2006,06,15,01,28,0.00
2006,06,15,01,29,0.30
2006,06,15,01,30,1.50
2006,06,15,01,31,2.80
2006,06,15,01,32,5.70
2006,06,15,01,33,2.70
2006,06,15,01,34,2.70
2006,06,15,01,35,2.10
2006,06,15,01,36,3.10
2006,06,15,01,37,4.50
2006,06,15,01,38,3.80
2006,06,15,01,39,2.30
2006,06,15,01,40,1.50
2006,06,15,01,41,3.40
2006,06,15,01,42,3.10
2006,06,15,01,43,2.10
2006,06,15,01,44,1.00
2006,06,15,01,45,0.00
2006,06,15,01,46,0.10
2006,06,15,01,47,0.00
2006,06,15,01,48,0.00
2006,06,15,01,49,1.50
2006,06,15,01,50,1.50
2006,06,15,01,51,0.60
2006,06,15,01,52,1.70
2006,06,15,01,53,1.80
2006,06,15,01,54,2.70
2006,06,15,01,55,1.50
2006,06,15,01,56,1.90
2006,06,15,01,57,3.60
2006,06,15,01,58,4.30
2006,06,15,01,59,5.10
2006,06,15,02,00,4.00
2006,06,15,02,01,2.90
2006,06,15,02,02,2.80
2006,06,15,02,03,4.60
2006,06,15,02,04,3.10
2006,06,15,02,05,3.60
2006,06,15,02,06,3.10
2006,06,15,02,07,1.00
2006,06,15,02,08,2.70
2006,06,15,02,09,2.30
2006,06,15,02,10,2.90
2006,06,15,02,11,2.60
2006,06,15,02,12,5.10
2006,06,15,02,13,4.70
2006,06,15,02,14,2.00
2006,06,15,02,15,1.60
2006,06,15,02,16,2.10
2006,06,15,02,17,4.00
2006,06,15,02,18,3.30
2006,06,15,02,19,1.50
2006,06,15,02,20,1.80
2006,06,15,02,21,0.00
2006,06,15,02,22,0.60
2006,06,15,02,23,2.80
2006,06,15,02,24,2.60
2006,06,15,02,25,2.40
2006,06,15,02,26,0.70
2006,06,15,02,27,0.00
2006,06,15,02,28,0.80
2006,06,15,02,29,0.70
2006,06,15,02,30,0.00
2006,06,15,02,31,1.30
2006,06,15,02,32,5.10
2006,06,15,02,33,5.30
2006,06,15,02,34,0.80
2006,06,15,02,35,1.80
2006,06,15,02,36,1.60
2006,06,15,02,37,0.80
2006,06,15,02,38,1.90
2006,06,15,02,39,1.40
2006,06,15,02,40,0.50
2006,06,15,02,41,0.00
2006,06,15,02,42,0.00
2006,06,15,02,43,0.00
2006,06,15,02,44,0.00
2006,06,15,02,45,0.10
2006,06,15,02,46,0.00
2006,06,15,02,47,0.20
2006,06,15,02,48,1.10
2006,06,15,02,49,1.30
2006,06,15,02,50,1.60
2006,06,15,02,51,1.70
2006,06,15,02,52,1.30
2006,06,15,02,53,1.30
2006,06,15,02,54,0.70
2006,06,15,02,55,0.30
2006,06,15,02,56,0.20
2006,06,15,02,57,0.00
2006,06,15,02,58,0.00
2006,06,15,02,59,0.00
2006,06,15,03,00,0.00
2006,06,15,03,01,0.00
2006,06,15,03,02,0.00
2006,06,15,03,03,0.20
2006,06,15,03,04,0.90
2006,06,15,03,05,1.60
2006,06,15,03,06,2.50
2006,06,15,03,07,3.20
2006,06,15,03,08,3.80
2006,06,15,03,09,2.50
2006,06,15,03,10,2.60
2006,06,15,03,11,0.70
2006,06,15,03,12,0.00
2006,06,15,03,13,1.10
2006,06,15,03,14,1.60
2006,06,15,03,15,1.90
2006,06,15,03,16,2.20
2006,06,15,03,17,3.40
2006,06,15,03,18,4.00
2006,06,15,03,19,3.00
2006,06,15,03,20,2.10
2006,06,15,03,21,1.40
2006,06,15,03,22,1.60
2006,06,15,03,23,2.00
2006,06,15,03,24,0.30
2006,06,15,03,25,0.20
2006,06,15,03,26,1.50
2006,06,15,03,27,2.10
2006,06,15,03,28,1.70
2006,06,15,03,29,1.90
2006,06,15,03,30,1.50
2006,06,15,03,31,0.30
2006,06,15,03,32,0.80
2006,06,15,03,33,0.70
2006,06,15,03,34,0.30
2006,06,15,03,35,1.90
2006,06,15,03,36,1.50
2006,06,15,03,37,2.30
2006,06,15,03,38,1.60
2006,06,15,03,39,1.70
2006,06,15,03,40,1.10
2006,06,15,03,41,2.30
2006,06,15,03,42,2.10
2006,06,15,03,43,0.80
2006,06,15,03,44,1.40
2006,06,15,03,45,0.80
2006,06,15,03,46,0.00
2006,06,15,03,47,0.10
2006,06,15,03,48,1.30
2006,06,15,03,49,2.30
2006,06,15,03,50,3.80
2006,06,15,03,51,1.40
2006,06,15,03,52,1.80
2006,06,15,03,53,1.20
2006,06,15,03,54,0.90
2006,06,15,03,55,1.30
2006,06,15,03,56,1.20
2006,06,15,03,57,1.70
2006,06,15,03,58,1.60
2006,06,15,03,59,1.60
2006,06,15,04,00,0.60
2006,06,15,04,01,0.30
2006,06,15,04,02,0.50
2006,06,15,04,03,1.50
2006,06,15,04,04,1.10
2006,06,15,04,05,0.20
2006,06,15,04,06,0.30
2006,06,15,04,07,0.90
2006,06,15,04,08,0.00
2006,06,15,04,09,0.60
2006,06,15,04,10,3.00
2006,06,15,04,11,1.10
2006,06,15,04,12,2.00
2006,06,15,04,13,2.40
2006,06,15,04,14,1.40
2006,06,15,04,15,0.30
2006,06,15,04,16,1.00
2006,06,15,04,17,1.60
2006,06,15,04,18,0.00
2006,06,15,04,19,1.90
2006,06,15,04,20,1.40
2006,06,15,04,21,0.40
2006,06,15,04,22,1.30
2006,06,15,04,23,0.50
2006,06,15,04,24,1.00
2006,06,15,04,25,0.30
2006,06,15,04,26,1.50
2006,06,15,04,27,0.60
2006,06,15,04,28,1.40
2006,06,15,04,29,0.30
2006,06,15,04,30,0.00
2006,06,15,04,31,0.20
2006,06,15,04,32,0.40
2006,06,15,04,33,0.00
2006,06,15,04,34,0.00
2006,06,15,04,35,0.00
2006,06,15,04,36,0.00
2006,06,15,04,37,0.00
2006,06,15,04,38,0.50
2006,06,15,04,39,0.00
2006,06,15,04,40,0.00
2006,06,15,04,41,0.00
2006,06,15,04,42,1.20
2006,06,15,04,43,2.00
2006,06,15,04,44,2.10
2006,06,15,04,45,1.10
2006,06,15,04,46,1.60
2006,06,15,04,47,1.90
2006,06,15,04,48,2.10
2006,06,15,04,49,1.50
2006,06,15,04,50,1.30
2006,06,15,04,51,1.10
2006,06,15,04,52,0.70
2006,06,15,04,53,0.20
2006,06,15,04,54,1.10
2006,06,15,04,55,1.80
2006,06,15,04,56,2.50
2006,06,15,04,57,2.00
2006,06,15,04,58,1.80
2006,06,15,04,59,0.80
2006,06,15,05,00,0.80
2006,06,15,05,01,1.90
2006,06,15,05,02,1.70
2006,06,15,05,03,1.30
2006,06,15,05,04,0.30
2006,06,15,05,05,1.20
2006,06,15,05,06,0.50
2006,06,15,05,07,1.20
2006,06,15,05,08,2.40
2006,06,15,05,09,2.40
2006,06,15,05,10,2.80
2006,06,15,05,11,2.60
2006,06,15,05,12,3.40
2006,06,15,05,13,3.20
2006,06,15,05,14,3.10
2006,06,15,05,15,2.80
2006,06,15,05,16,3.50
2006,06,15,05,17,3.30
2006,06,15,05,18,2.60
2006,06,15,05,19,2.00
2006,06,15,05,20,1.20
2006,06,15,05,21,1.60
2006,06,15,05,22,1.70
2006,06,15,05,23,1.80
2006,06,15,05,24,2.30
2006,06,15,05,25,2.40
2006,06,15,05,26,2.70
2006,06,15,05,27,2.10
2006,06,15,05,28,3.00
2006,06,15,05,29,2.70
2006,06,15,05,30,1.70
2006,06,15,05,31,1.70
2006,06,15,05,32,1.70
2006,06,15,05,33,2.10
2006,06,15,05,34,2.50
2006,06,15,05,35,2.30
2006,06,15,05,36,2.30
2006,06,15,05,37,2.30
2006,06,15,05,38,1.90
2006,06,15,05,39,2.30
2006,06,15,05,40,2.50
2006,06,15,05,41,2.20
2006,06,15,05,42,2.50
2006,06,15,05,43,2.60
2006,06,15,05,44,1.20
2006,06,15,05,45,1.50
2006,06,15,05,46,1.20
2006,06,15,05,47,2.10
2006,06,15,05,48,2.60
2006,06,15,05,49,2.50
2006,06,15,05,50,2.60
2006,06,15,05,51,2.90
2006,06,15,05,52,3.10
2006,06,15,05,53,2.60
2006,06,15,05,54,2.00
2006,06,15,05,55,1.70
2006,06,15,05,56,1.50
2006,06,15,05,57,2.00
2006,06,15,05,58,1.80
2006,06,15,05,59,0.80
2006,06,15,06,00,1.40
2006,06,15,06,01,1.60
2006,06,15,06,02,0.10
2006,06,15,06,03,0.00
2006,06,15,06,04,0.00
2006,06,15,06,05,0.00
2006,06,15,06,06,0.00
2006,06,15,06,07,0.00
2006,06,15,06,08,0.50
2006,06,15,06,09,2.30
2006,06,15,06,10,2.10
2006,06,15,06,11,2.30
2006,06,15,06,12,2.80
2006,06,15,06,13,2.50
2006,06,15,06,14,3.10
2006,06,15,06,15,3.60
2006,06,15,06,16,2.50
2006,06,15,06,17,2.20
2006,06,15,06,18,1.90
2006,06,15,06,19,2.00
2006,06,15,06,20,3.50
2006,06,15,06,21,3.60
2006,06,15,06,22,4.10
2006,06,15,06,23,3.50
2006,06,15,06,24,4.00
2006,06,15,06,25,3.60
2006,06,15,06,26,4.20
2006,06,15,06,27,2.40
2006,06,15,06,28,1.70
2006,06,15,06,29,1.30
2006,06,15,06,30,0.90
2006,06,15,06,31,2.70
2006,06,15,06,32,2.20
2006,06,15,06,33,1.70
2006,06,15,06,34,1.50
2006,06,15,06,35,0.00
2006,06,15,06,36,0.20
2006,06,15,06,37,0.70
2006,06,15,06,38,1.10
2006,06,15,06,39,2.00
2006,06,15,06,40,1.80
2006,06,15,06,41,1.80
2006,06,15,06,42,2.90
2006,06,15,06,43,3.40
2006,06,15,06,44,2.60
2006,06,15,06,45,2.80
2006,06,15,06,46,2.60
2006,06,15,06,47,1.40
2006,06,15,06,48,1.70
2006,06,15,06,49,2.70
2006,06,15,06,50,2.40
2006,06,15,06,51,1.50
2006,06,15,06,52,1.60
2006,06,15,06,53,1.80
2006,06,15,06,54,2.40
2006,06,15,06,55,2.30
2006,06,15,06,56,1.80
2006,06,15,06,57,1.90
2006,06,15,06,58,1.80
2006,06,15,06,59,3.40
2006,06,15,07,00,2.30
2006,06,15,07,01,1.90
2006,06,15,07,02,4.00
2006,06,15,07,03,5.00
2006,06,15,07,04,5.10
2006,06,15,07,05,2.30
2006,06,15,07,06,0.60
2006,06,15,07,07,1.20
2006,06,15,07,08,3.90
2006,06,15,07,09,5.70
2006,06,15,07,10,6.10
2006,06,15,07,11,3.50
2006,06,15,07,12,3.40
2006,06,15,07,13,0.90
2006,06,15,07,14,0.00
2006,06,15,07,15,0.10
2006,06,15,07,16,1.50
2006,06,15,07,17,1.50
2006,06,15,07,18,2.50
2006,06,15,07,19,2.50
2006,06,15,07,20,4.10
2006,06,15,07,21,2.80
2006,06,15,07,22,5.70
2006,06,15,07,23,5.10
2006,06,15,07,24,4.00
2006,06,15,07,25,5.20
2006,06,15,07,26,5.30
2006,06,15,07,27,4.80
2006,06,15,07,28,4.50
2006,06,15,07,29,3.20
2006,06,15,07,30,3.30
2006,06,15,07,31,2.60
2006,06,15,07,32,4.10
2006,06,15,07,33,6.30
2006,06,15,07,34,3.80
2006,06,15,07,35,3.00
2006,06,15,07,36,4.20
2006,06,15,07,37,5.50
2006,06,15,07,38,5.00
2006,06,15,07,39,6.10
2006,06,15,07,40,5.10
2006,06,15,07,41,4.90
2006,06,15,07,42,4.20
2006,06,15,07,43,5.60
2006,06,15,07,44,3.90
2006,06,15,07,45,4.60
2006,06,15,07,46,3.00
2006,06,15,07,47,1.60
2006,06,15,07,48,2.50
2006,06,15,07,49,2.70
2006,06,15,07,50,4.70
2006,06,15,07,51,4.00
2006,06,15,07,52,4.30
2006,06,15,07,53,3.90
2006,06,15,07,54,5.70
2006,06,15,07,55,3.50
2006,06,15,07,56,2.50
2006,06,15,07,57,2.80
2006,06,15,07,58,2.70
2006,06,15,07,59,1.60
2006,06,15,08,00,1.40
2006,06,15,08,01,2.40
2006,06,15,08,02,1.80
2006,06,15,08,03,2.70
2006,06,15,08,04,2.10
2006,06,15,08,05,3.40
2006,06,15,08,06,2.70
2006,06,15,08,07,4.70
2006,06,15,08,08,2.80
2006,06,15,08,09,5.10
2006,06,15,08,10,4.10
2006,06,15,08,11,4.40
2006,06,15,08,12,5.50
2006,06,15,08,13,5.40
2006,06,15,08,14,6.00
2006,06,15,08,15,3.90
2006,06,15,08,16,3.40
2006,06,15,08,17,4.10
2006,06,15,08,18,6.20
2006,06,15,08,19,6.10
2006,06,15,08,20,7.90
2006,06,15,08,21,8.10
2006,06,15,08,22,7.70
2006,06,15,08,23,5.30
2006,06,15,08,24,6.10
2006,06,15,08,25,7.80
2006,06,15,08,26,5.60
2006,06,15,08,27,3.80
2006,06,15,08,28,6.20
2006,06,15,08,29,6.70
2006,06,15,08,30,5.50
2006,06,15,08,31,4.60
2006,06,15,08,32,8.20
2006,06,15,08,33,6.90
2006,06,15,08,34,8.20
2006,06,15,08,35,8.70
2006,06,15,08,36,6.80
2006,06,15,08,37,5.70
2006,06,15,08,38,5.60
2006,06,15,08,39,4.10
2006,06,15,08,40,7.10
2006,06,15,08,41,4.30
2006,06,15,08,42,7.20
2006,06,15,08,43,7.80
2006,06,15,08,44,10.70
2006,06,15,08,45,6.50
2006,06,15,08,46,8.90
2006,06,15,08,47,7.60
2006,06,15,08,48,7.60
2006,06,15,08,49,10.50
2006,06,15,08,50,6.40
2006,06,15,08,51,5.10
2006,06,15,08,52,9.60
2006,06,15,08,53,7.50
2006,06,15,08,54,5.50
2006,06,15,08,55,3.50
2006,06,15,08,56,3.00
2006,06,15,08,57,2.60
2006,06,15,08,58,1.40
2006,06,15,08,59,4.30
2006,06,15,09,00,3.90
2006,06,15,09,01,3.50
2006,06,15,09,02,3.90
2006,06,15,09,03,4.30
2006,06,15,09,04,6.40
2006,06,15,09,05,3.50
2006,06,15,09,06,2.30
2006,06,15,09,07,1.90
2006,06,15,09,08,2.20
2006,06,15,09,09,5.30
2006,06,15,09,10,3.70
2006,06,15,09,11,5.70
2006,06,15,09,12,10.00
2006,06,15,09,13,4.60
2006,06,15,09,14,8.40
2006,06,15,09,15,10.90
2006,06,15,09,16,8.70
2006,06,15,09,17,8.90
2006,06,15,09,18,6.90
2006,06,15,09,19,8.90
2006,06,15,09,20,10.10
2006,06,15,09,21,13.10
2006,06,15,09,22,8.10
2006,06,15,09,23,4.00
2006,06,15,09,24,7.50
2006,06,15,09,25,6.80
2006,06,15,09,26,11.30
2006,06,15,09,27,10.00
2006,06,15,09,28,11.30
2006,06,15,09,29,8.70
2006,06,15,09,30,13.00
2006,06,15,09,31,8.80
2006,06,15,09,32,7.20
2006,06,15,09,33,6.50
2006,06,15,09,34,5.30
2006,06,15,09,35,6.80
2006,06,15,09,36,5.30
2006,06,15,09,37,3.50
2006,06,15,09,38,6.80
2006,06,15,09,39,4.00
2006,06,15,09,40,3.90
2006,06,15,09,41,4.90
2006,06,15,09,42,3.80
2006,06,15,09,43,2.10
2006,06,15,09,44,3.70
2006,06,15,09,45,3.30
2006,06,15,09,46,5.00
2006,06,15,09,47,6.20
2006,06,15,09,48,4.70
2006,06,15,09,49,2.40
2006,06,15,09,50,2.70
2006,06,15,09,51,5.10
2006,06,15,09,52,2.10
2006,06,15,09,53,6.00
2006,06,15,09,54,3.90
2006,06,15,09,55,3.60
2006,06,15,09,56,1.90
2006,06,15,09,57,2.00
2006,06,15,09,58,2.80
2006,06,15,09,59,0.40
2006,06,15,10,00,1.80
2006,06,15,10,01,6.80
2006,06,15,10,02,3.80
2006,06,15,10,03,3.60
2006,06,15,10,04,6.80
2006,06,15,10,05,3.00
2006,06,15,10,06,1.70
2006,06,15,10,07,1.50
2006,06,15,10,08,3.00
2006,06,15,10,09,2.70
2006,06,15,10,10,1.40
2006,06,15,10,11,0.90
2006,06,15,10,12,2.80
2006,06,15,10,13,3.90
2006,06,15,10,14,3.40
2006,06,15,10,15,4.70
2006,06,15,10,16,3.00
2006,06,15,10,17,1.40
2006,06,15,10,18,1.30
2006,06,15,10,19,3.20
2006,06,15,10,20,0.90
2006,06,15,10,21,1.30
2006,06,15,10,22,1.00
2006,06,15,10,23,0.20
2006,06,15,10,24,1.10
2006,06,15,10,25,1.90
2006,06,15,10,26,0.60
2006,06,15,10,27,2.10
2006,06,15,10,28,1.90
2006,06,15,10,29,1.80
2006,06,15,10,30,2.80
2006,06,15,10,31,1.50
2006,06,15,10,32,0.70
2006,06,15,10,33,0.20
2006,06,15,10,34,0.10
2006,06,15,10,35,3.60
2006,06,15,10,36,5.60
2006,06,15,10,37,3.60
2006,06,15,10,38,3.30
2006,06,15,10,39,2.50
2006,06,15,10,40,0.20
2006,06,15,10,41,1.50
2006,06,15,10,42,0.90
2006,06,15,10,43,0.60
2006,06,15,10,44,2.20
2006,06,15,10,45,1.80
2006,06,15,10,46,0.20
2006,06,15,10,47,1.50
2006,06,15,10,48,2.10
2006,06,15,10,49,2.40
2006,06,15,10,50,0.90
2006,06,15,10,51,2.50
2006,06,15,10,52,1.10
2006,06,15,10,53,2.80
2006,06,15,10,54,3.20
2006,06,15,10,55,3.50
2006,06,15,10,56,2.40
2006,06,15,10,57,4.80
2006,06,15,10,58,3.20
2006,06,15,10,59,6.40
2006,06,15,11,00,14.50
2006,06,15,11,01,4.30
2006,06,15,11,02,5.60
2006,06,15,11,03,2.70
2006,06,15,11,04,4.60
2006,06,15,11,05,3.40
2006,06,15,11,06,2.50
2006,06,15,11,07,3.50
2006,06,15,11,08,2.70
2006,06,15,11,09,5.20
2006,06,15,11,10,7.60
2006,06,15,11,11,13.30
2006,06,15,11,12,9.60
2006,06,15,11,13,6.80
2006,06,15,11,14,1.90
2006,06,15,11,15,2.10
2006,06,15,11,16,3.20
2006,06,15,11,17,4.00
2006,06,15,11,18,4.10
2006,06,15,11,19,2.50
2006,06,15,11,20,1.60
2006,06,15,11,21,2.50
2006,06,15,11,22,3.00
2006,06,15,11,23,7.60
2006,06,15,11,24,4.10
2006,06,15,11,25,4.10
2006,06,15,11,26,6.40
2006,06,15,11,27,2.20
2006,06,15,11,28,1.50
2006,06,15,11,29,1.10
2006,06,15,11,30,3.30
2006,06,15,11,31,3.50
2006,06,15,11,32,4.80
2006,06,15,11,33,3.00
2006,06,15,11,34,2.50
2006,06,15,11,35,1.50
2006,06,15,11,36,0.70
2006,06,15,11,37,3.10
2006,06,15,11,38,5.20
2006,06,15,11,39,4.70
2006,06,15,11,40,3.00
2006,06,15,11,41,3.30
2006,06,15,11,42,3.90
2006,06,15,11,43,2.60
2006,06,15,11,44,2.30
2006,06,15,11,45,2.90
2006,06,15,11,46,6.90
2006,06,15,11,47,6.30
2006,06,15,11,48,7.20
2006,06,15,11,49,4.80
2006,06,15,11,50,4.60
2006,06,15,11,51,4.60
2006,06,15,11,52,4.60
2006,06,15,11,53,3.70
2006,06,15,11,54,1.50
2006,06,15,11,55,1.90
2006,06,15,11,56,2.20
2006,06,15,11,57,2.40
2006,06,15,11,58,2.70
2006,06,15,11,59,2.20
2006,06,15,12,00,1.50
2006,06,15,12,01,2.20
2006,06,15,12,02,5.50
2006,06,15,12,03,10.50
2006,06,15,12,04,5.10
2006,06,15,12,05,3.10
2006,06,15,12,06,3.90
2006,06,15,12,07,1.50
2006,06,15,12,08,2.00
2006,06,15,12,09,9.70
2006,06,15,12,10,2.20
2006,06,15,12,11,4.10
2006,06,15,12,12,3.00
2006,06,15,12,13,5.90
2006,06,15,12,14,3.00
2006,06,15,12,15,0.90
2006,06,15,12,16,2.10
2006,06,15,12,17,3.00
2006,06,15,12,18,4.50
2006,06,15,12,19,5.30
2006,06,15,12,20,4.20
2006,06,15,12,21,1.60
2006,06,15,12,22,3.20
2006,06,15,12,23,5.50
2006,06,15,12,24,3.50
2006,06,15,12,25,6.60
2006,06,15,12,26,7.40
2006,06,15,12,27,5.30
2006,06,15,12,28,2.30
2006,06,15,12,29,2.00
2006,06,15,12,30,1.90
2006,06,15,12,31,1.60
2006,06,15,12,32,1.60
2006,06,15,12,33,6.90
2006,06,15,12,34,3.70
2006,06,15,12,35,3.10
2006,06,15,12,36,11.00
2006,06,15,12,37,15.40
2006,06,15,12,38,9.70
2006,06,15,12,39,8.50
2006,06,15,12,40,7.90
2006,06,15,12,41,3.00
2006,06,15,12,42,2.50
2006,06,15,12,43,2.80
2006,06,15,12,44,2.90
2006,06,15,12,45,6.40
2006,06,15,12,46,8.00
2006,06,15,12,47,6.90
2006,06,15,12,48,4.60
2006,06,15,12,49,5.10
2006,06,15,12,50,6.60
2006,06,15,12,51,6.50
2006,06,15,12,52,2.80
2006,06,15,12,53,7.90
2006,06,15,12,54,17.60
2006,06,15,12,55,7.00
2006,06,15,12,56,6.40
2006,06,15,12,57,2.50
2006,06,15,12,58,4.90
2006,06,15,12,59,6.50
2006,06,15,13,00,3.40
2006,06,15,13,01,4.20
2006,06,15,13,02,7.20
2006,06,15,13,03,3.30
2006,06,15,13,04,11.00
2006,06,15,13,05,5.40
2006,06,15,13,06,3.00
2006,06,15,13,07,3.00
2006,06,15,13,08,4.00
2006,06,15,13,09,4.80
2006,06,15,13,10,4.50
2006,06,15,13,11,16.50
2006,06,15,13,12,10.50
2006,06,15,13,13,4.90
2006,06,15,13,14,16.20
2006,06,15,13,15,3.90
2006,06,15,13,16,2.80
2006,06,15,13,17,2.50
2006,06,15,13,18,4.10
2006,06,15,13,19,3.40
2006,06,15,13,20,2.00
2006,06,15,13,21,2.40
2006,06,15,13,22,2.30
2006,06,15,13,23,3.00
2006,06,15,13,24,2.40
2006,06,15,13,25,2.70
2006,06,15,13,26,1.20
2006,06,15,13,27,1.80
2006,06,15,13,28,2.20
2006,06,15,13,29,2.60
2006,06,15,13,30,1.50
2006,06,15,13,31,3.50
2006,06,15,13,32,4.00
2006,06,15,13,33,3.60
2006,06,15,13,34,2.30
2006,06,15,13,35,4.40
2006,06,15,13,36,1.70
2006,06,15,13,37,2.60
2006,06,15,13,38,1.20
2006,06,15,13,39,3.00
2006,06,15,13,40,3.60
2006,06,15,13,41,2.40
2006,06,15,13,42,2.00
2006,06,15,13,43,2.60
2006,06,15,13,44,2.20
2006,06,15,13,45,2.60
2006,06,15,13,46,1.80
2006,06,15,13,47,2.30
2006,06,15,13,48,1.80
2006,06,15,13,49,1.60
2006,06,15,13,50,1.10
2006,06,15,13,51,2.10
2006,06,15,13,52,2.50
2006,06,15,13,53,1.80
2006,06,15,13,54,2.20
2006,06,15,13,55,3.20
2006,06,15,13,56,5.40
2006,06,15,13,57,5.10
2006,06,15,13,58,6.00
2006,06,15,13,59,4.80
2006,06,15,14,00,6.60
2006,06,15,14,01,12.70
2006,06,15,14,02,10.20
2006,06,15,14,03,4.50
2006,06,15,14,04,2.30
2006,06,15,14,05,1.60
2006,06,15,14,06,2.50
2006,06,15,14,07,3.50
2006,06,15,14,08,6.70
2006,06,15,14,09,3.10
2006,06,15,14,10,1.60
2006,06,15,14,11,2.90
2006,06,15,14,12,2.20
2006,06,15,14,13,1.60
2006,06,15,14,14,3.10
2006,06,15,14,15,5.20
2006,06,15,14,16,4.90
2006,06,15,14,17,1.40
2006,06,15,14,18,3.00
2006,06,15,14,19,3.00
2006,06,15,14,20,2.70
2006,06,15,14,21,4.00
2006,06,15,14,22,2.60
2006,06,15,14,23,3.00
2006,06,15,14,24,1.50
2006,06,15,14,25,2.70
2006,06,15,14,26,2.60
2006,06,15,14,27,2.50
2006,06,15,14,28,2.40
2006,06,15,14,29,2.40
2006,06,15,14,30,3.40
2006,06,15,14,31,2.50
2006,06,15,14,32,1.90
2006,06,15,14,33,2.20
2006,06,15,14,34,3.10
2006,06,15,14,35,2.00
2006,06,15,14,36,2.80
2006,06,15,14,37,3.20
2006,06,15,14,38,1.30
2006,06,15,14,39,3.80
2006,06,15,14,40,7.60
2006,06,15,14,41,3.50
2006,06,15,14,42,3.30
2006,06,15,14,43,2.60
2006,06,15,14,44,3.10
2006,06,15,14,45,4.10
2006,06,15,14,46,3.90
2006,06,15,14,47,3.00
2006,06,15,14,48,2.40
2006,06,15,14,49,2.70
2006,06,15,14,50,3.10
2006,06,15,14,51,3.00
2006,06,15,14,52,3.80
2006,06,15,14,53,2.30
2006,06,15,14,54,3.00
2006,06,15,14,55,3.30
2006,06,15,14,56,3.90
2006,06,15,14,57,3.50
2006,06,15,14,58,4.30
2006,06,15,14,59,3.10
2006,06,15,15,00,1.60
2006,06,15,15,01,2.00
2006,06,15,15,02,3.50
2006,06,15,15,03,2.60
2006,06,15,15,04,2.30
2006,06,15,15,05,2.30
2006,06,15,15,06,1.80
2006,06,15,15,07,2.30
2006,06,15,15,08,1.80
2006,06,15,15,09,3.00
2006,06,15,15,10,3.20
2006,06,15,15,11,5.50
2006,06,15,15,12,2.50
2006,06,15,15,13,2.30
2006,06,15,15,14,2.00
2006,06,15,15,15,3.00
2006,06,15,15,16,4.70
2006,06,15,15,17,3.90
2006,06,15,15,18,3.70
2006,06,15,15,19,6.70
2006,06,15,15,20,4.10
2006,06,15,15,21,2.50
2006,06,15,15,22,3.00
2006,06,15,15,23,2.00
2006,06,15,15,24,2.00
2006,06,15,15,25,2.20
2006,06,15,15,26,2.40
2006,06,15,15,27,1.60
2006,06,15,15,28,2.70
2006,06,15,15,29,9.20
2006,06,15,15,30,16.10
2006,06,15,15,31,9.80
2006,06,15,15,32,1.60
2006,06,15,15,33,2.90
2006,06,15,15,34,1.20
2006,06,15,15,35,1.60
2006,06,15,15,36,2.70
2006,06,15,15,37,4.10
2006,06,15,15,38,4.50
2006,06,15,15,39,3.70
2006,06,15,15,40,10.30
2006,06,15,15,41,11.30
2006,06,15,15,42,10.00
2006,06,15,15,43,2.30
2006,06,15,15,44,2.30
2006,06,15,15,45,1.80
2006,06,15,15,46,2.90
2006,06,15,15,47,0.70
2006,06,15,15,48,3.70
2006,06,15,15,49,7.60
2006,06,15,15,50,3.90
2006,06,15,15,51,11.50
2006,06,15,15,52,14.50
2006,06,15,15,53,3.20
2006,06,15,15,54,2.90
2006,06,15,15,55,12.40
2006,06,15,15,56,7.40
2006,06,15,15,57,4.10
2006,06,15,15,58,3.10
2006,06,15,15,59,4.80
2006,06,15,16,00,6.10
2006,06,15,16,01,9.50
2006,06,15,16,02,6.40
2006,06,15,16,03,7.90
2006,06,15,16,04,11.40
2006,06,15,16,05,4.80
2006,06,15,16,06,3.20
2006,06,15,16,07,3.30
2006,06,15,16,08,2.90
2006,06,15,16,09,3.70
2006,06,15,16,10,3.00
2006,06,15,16,11,3.60
2006,06,15,16,12,2.10
2006,06,15,16,13,3.10
2006,06,15,16,14,3.10
2006,06,15,16,15,5.10
2006,06,15,16,16,3.50
2006,06,15,16,17,5.40
2006,06,15,16,18,7.30
2006,06,15,16,19,6.10
2006,06,15,16,20,2.20
2006,06,15,16,21,2.10
2006,06,15,16,22,3.30
2006,06,15,16,23,6.20
2006,06,15,16,24,5.00
2006,06,15,16,25,4.90
2006,06,15,16,26,2.80
2006,06,15,16,27,3.80
2006,06,15,16,28,7.40
2006,06,15,16,29,6.70
2006,06,15,16,30,4.00
2006,06,15,16,31,1.90
2006,06,15,16,32,3.70
2006,06,15,16,33,3.20
2006,06,15,16,34,2.80
2006,06,15,16,35,2.20
2006,06,15,16,36,2.00
2006,06,15,16,37,1.40
2006,06,15,16,38,1.70
2006,06,15,16,39,1.70
2006,06,15,16,40,3.00
2006,06,15,16,41,1.40
2006,06,15,16,42,1.30
2006,06,15,16,43,3.80
2006,06,15,16,44,2.10
2006,06,15,16,45,2.00
2006,06,15,16,46,4.70
2006,06,15,16,47,4.00
2006,06,15,16,48,4.80
2006,06,15,16,49,1.00
2006,06,15,16,50,0.20
2006,06,15,16,51,0.90
2006,06,15,16,52,0.80
2006,06,15,16,53,0.60
2006,06,15,16,54,4.10
2006,06,15,16,55,4.80
2006,06,15,16,56,1.90
2006,06,15,16,57,3.10
2006,06,15,16,58,5.40
2006,06,15,16,59,3.90
2006,06,15,17,00,10.50
2006,06,15,17,01,12.90
2006,06,15,17,02,11.00
2006,06,15,17,03,7.70
2006,06,15,17,04,4.90
2006,06,15,17,05,5.30
2006,06,15,17,06,2.20
2006,06,15,17,07,2.40
2006,06,15,17,08,3.10
2006,06,15,17,09,5.50
2006,06,15,17,10,8.90
2006,06,15,17,11,1.90
2006,06,15,17,12,1.60
2006,06,15,17,13,0.40
2006,06,15,17,14,0.00
2006,06,15,17,15,0.80
2006,06,15,17,16,1.30
2006,06,15,17,17,3.10
2006,06,15,17,18,3.50
2006,06,15,17,19,3.10
2006,06,15,17,20,9.10
2006,06,15,17,21,5.20
2006,06,15,17,22,8.00
2006,06,15,17,23,6.40
2006,06,15,17,24,10.60
2006,06,15,17,25,10.10
2006,06,15,17,26,7.20
2006,06,15,17,27,6.80
2006,06,15,17,28,9.80
2006,06,15,17,29,7.40
2006,06,15,17,30,9.00
2006,06,15,17,31,4.60
2006,06,15,17,32,1.50
2006,06,15,17,33,1.90
2006,06,15,17,34,2.80
2006,06,15,17,35,1.50
2006,06,15,17,36,3.80
2006,06,15,17,37,6.40
2006,06,15,17,38,5.20
2006,06,15,17,39,0.90
2006,06,15,17,40,0.10
2006,06,15,17,41,0.20
2006,06,15,17,42,1.40
2006,06,15,17,43,4.20
2006,06,15,17,44,4.80
2006,06,15,17,45,3.10
2006,06,15,17,46,3.30
2006,06,15,17,47,6.70
2006,06,15,17,48,3.20
2006,06,15,17,49,8.00
2006,06,15,17,50,7.90
2006,06,15,17,51,7.30
2006,06,15,17,52,3.50
2006,06,15,17,53,6.70
2006,06,15,17,54,7.00
2006,06,15,17,55,5.10
2006,06,15,17,56,4.70
2006,06,15,17,57,3.40
2006,06,15,17,58,5.50
2006,06,15,17,59,8.30
2006,06,15,18,00,7.60
2006,06,15,18,01,5.70
2006,06,15,18,02,8.30
2006,06,15,18,03,6.80
2006,06,15,18,04,2.60
2006,06,15,18,05,2.40